Location: Biberach+an+der+Riss
(48.0937°N, 9.7888°E)
Time: 16:42:13
(UTC+01:00)

Tiangong 2 - Visible Passes

Search period start: 23 January 2018 00:00
Search period end: 02 February 2018 00:00
Orbit: 384 x 390 km, 42.8° (Epoch: 23 January)

Date Brightness Start Highest point End Pass type
(mag) Time Alt. Az. Time Alt. Az. Time Alt. Az.
23 Jan 4.6 05:00:32 11° ESE 05:00:32 11° ESE 05:00:42 10° ESE visible
23 Jan 2.5 06:32:48 18° SW 06:34:35 31° S 06:37:28 10° ESE visible
24 Jan 3.1 05:36:49 25° SE 05:36:49 25° SE 05:38:49 10° ESE visible
24 Jan 2.8 07:09:36 10° WSW 07:12:20 26° SSW 07:15:05 10° SE visible
25 Jan 2.4 06:13:03 27° SSW 06:13:44 30° S 06:16:35 10° ESE visible
26 Jan 3.9 05:17:01 17° SE 05:17:01 17° SE 05:18:00 10° ESE visible
26 Jan 3.0 06:49:17 12° WSW 06:51:27 21° SSW 06:53:56 10° SE visible
27 Jan 2.8 05:53:15 25° S 05:53:15 25° S 05:55:35 10° SE visible
28 Jan 3.3 06:29:29 14° SW 06:30:28 15° SSW 06:32:27 10° SSE visible
29 Jan 3.7 05:33:30 15° SSE 05:33:30 15° SSE 05:34:21 10° SSE visible
30 Jan 3.8 06:09:49 10° SSW 06:09:49 10° SSW 06:09:54 10° SSW visible
